Home > Weather > Hoshiarpur > Past weeks

Flag for India Past Weather in Hoshiarpur, Punjab, India — Yesterday and Last 2 Weeks

Now
77 °F

Thunderstorms. More clouds than sun.


Feels Like: 78 °F
Forecast: 79 / 99 °F
Wind: 6 mph from Northwest

Location: Amritsar Airport

Current Time: Aug 25, 2016 at 12:05:12 PM

Latest Report: Aug 25, 2016 at 11:30 AM


Visibility: 2 mi

Pressure: 29.77 "Hg

Humidity: 100%

Dew Point: 77 °F

Location of HoshiarpurLocation

Past Weather in Hoshiarpur — Graph

°F

Hoshiarpur Temperature Yesterday

Maximum temperature yesterday: 90 °F (at 9:30 AM)
Minimum temperature yesterday: 73 °F (at 4:30 PM)
Average temperature yesterday: 81 °F

High & Low Weather Summary for the Past Weeks

 TemperatureHumidityPressure
High95 °F (Aug 13, 3:00 PM)100% (Aug 10, 10:30 AM)29.80 "Hg (Aug 10, 10:30 AM)
Low73 °F (Aug 24, 4:30 PM)50% (Aug 19, 4:00 PM)29.42 "Hg (Aug 16, 6:00 PM)
Average85 °F91%29.58 "Hg
* Reported Aug 10 10:30 AM — Aug 25 11:00 AM, Hoshiarpur, Weather by CustomWeather, © 2016

Note: Actual official high and low records may vary slightly from our data, if they occured in-between our weather recording intervals... More about our weather records

Advertising

Hoshiarpur Weather History for the Previous 24 Hours

Scroll right to see more
 ConditionsComfort  
Time TempWeatherWind HumidityBarometerVisibility
11:00 AM
Thu, Aug 25
77 °FThunderstorms. More clouds than sun.2 mph100%29.80 "Hg1 mi
10:30 AM77 °FThunderstorms. More clouds than sun.6 mph100%29.77 "Hg2 mi
10:00 AM77 °FThunderstorms. More clouds than sun.6 mph100%29.77 "Hg2 mi
8:00 AM75 °FRain. More clouds than sun.No wind100%29.77 "Hg1 mi
7:30 AM75 °FRain. More clouds than sun.6 mph100%29.77 "Hg1 mi
7:00 AM75 °FRain. More clouds than sun.5 mph100%29.74 "Hg1 mi
6:30 AM75 °FRain. Mostly cloudy.6 mph100%29.74 "Hg1 mi
6:00 AM75 °FRain. Mostly cloudy.7 mph100%29.71 "Hg1 mi
5:30 AM75 °FRain. Mostly cloudy.6 mph100%29.71 "Hg1 mi
5:00 AM75 °FRain. Mostly cloudy.5 mph100%29.77 "Hg1 mi
4:30 AM77 °FRain. Mostly cloudy.3 mph100%29.71 "Hg1 mi
4:00 AM75 °FFog.5 mph100%29.71 "Hg1 mi
3:30 AM75 °FFog.No wind100%29.71 "Hg1 mi
3:00 AM75 °FFog.6 mph100%29.71 "Hg1 mi
2:30 AM75 °FFog.5 mph100%29.71 "Hg1 mi
2:00 AM75 °FFog.5 mph100%29.71 "Hg1 mi
1:30 AM75 °FFog.No wind100%29.71 "Hg1 mi
1:00 AM75 °FFog.No wind100%29.71 "Hg1 mi
12:30 AM75 °FFog.No wind100%29.71 "Hg1 mi
12:00 AM75 °FFog.3 mph100%29.71 "Hg1 mi
11:30 PM
Wed, Aug 24
75 °FFog.1 mph100%29.71 "Hg1 mi
11:00 PM75 °FFog.No wind100%29.71 "Hg1 mi
10:30 PM75 °FFog.No wind100%29.71 "Hg1 mi
10:00 PM75 °FFog.2 mph100%29.71 "Hg1 mi
9:30 PM75 °FFog.7 mph100%29.68 "Hg1 mi
9:00 PM75 °FFog.3 mph100%29.68 "Hg1 mi
8:30 PM75 °FFog.3 mph100%29.65 "Hg2 mi
8:00 PM75 °FFog.No wind100%29.65 "Hg2 mi
7:30 PM75 °FFog.No wind100%29.65 "Hg2 mi
7:00 PM75 °FFog.No wind100%29.65 "Hg2 mi
6:30 PM75 °FFog.No wind100%29.65 "Hg2 mi
6:00 PM75 °FThunderstorms. More clouds than sun.No wind100%29.65 "Hg2 mi
5:00 PM73 °FThunderstorms. More clouds than sun.7 mph100%29.65 "Hg2 mi
4:30 PM73 °FThunderstorms. More clouds than sun.5 mph100%29.65 "Hg2 mi
3:30 PM75 °FThunderstorms. More clouds than sun.7 mph100%29.68 "Hg2 mi
3:00 PM75 °FThunderstorms. More clouds than sun.6 mph100%29.68 "Hg2 mi
2:30 PM77 °FThunderstorms. More clouds than sun.6 mph100%29.68 "HgN/A
Weather by CustomWeather, © 2016

See weather overviewHow to use our weather pages